Home   Weather   Nürtingen   Past weeks

Flag for Germany Past Weather in Nürtingen, Baden-Württemberg, Germany — Yesterday and Last 2 Weeks

Now
18 °F

Ice fog.


Feels Like: 18 °F
Forecast: 13 / 23 °F
Wind: 2 mph from North

Location: Stuttgart-Echterdingen

Current Time: Jan 23, 2017 at 11:55:59 am

Latest Report: Jan 23, 2017 at 11:20 am


Visibility: 2 mi

Pressure: 30.24 "Hg

Humidity: 86%

Dew Point: 14 °F

Location of NürtingenLocation

Past Weather in Nürtingen — Graph

°F

Nürtingen Temperature Yesterday

Maximum temperature yesterday: 30 °F (at 2:20 pm)
Minimum temperature yesterday: 9 °F (at 7:50 am)
Average temperature yesterday: 19 °F

High & Low Weather Summary for the Past Weeks

 TemperatureHumidityPressure
High43 °F (Jan 13, 12:20 am)100% (Jan 8, 5:20 pm)30.51 "Hg (Jan 8, 5:20 pm)
Low9 °F (Jan 22, 7:50 am)55% (Jan 20, 1:20 pm)29.33 "Hg (Jan 13, 12:20 am)
Average27 °F82%30.15 "Hg
* Reported Jan 8 10:20 am — Jan 23 10:50 am, Nürtingen, Weather by CustomWeather, © 2017

Note: Actual official high and low records may vary slightly from our data, if they occured in-between our weather recording intervals... More about our weather records

Advertising

Nürtingen Weather History for the Previous 24 Hours

Scroll right to see more
 ConditionsComfort  
Time TempWeatherWind HumidityBarometerVisibility
10:50 am
Mon, Jan 23
16 °FIce fog.2 mph86%30.24 "Hg2 mi
10:20 am14 °FIce fog.1 mph85%30.24 "Hg2 mi
9:50 am12 °FIce fog.1 mph92%30.24 "Hg2 mi
9:20 am10 °FIce fog.2 mph92%30.24 "Hg2 mi
8:50 am9 °FIce fog.1 mph92%30.21 "Hg2 mi
8:20 am9 °FIce fog.1 mph92%30.21 "Hg2 mi
7:50 am9 °FIce fog.1 mph92%30.21 "Hg2 mi
7:20 am9 °FIce fog.2 mph92%30.21 "Hg2 mi
6:50 am9 °FIce fog.1 mph92%30.21 "Hg2 mi
6:20 am9 °FIce fog.1 mph92%30.21 "Hg2 mi
5:50 am10 °FIce fog.1 mph85%30.21 "Hg2 mi
5:20 am10 °FIce fog.1 mph92%30.21 "Hg2 mi
4:50 am10 °FIce fog.1 mph92%30.21 "Hg2 mi
4:20 am10 °FIce fog.1 mph92%30.21 "Hg2 mi
3:50 am10 °FIce fog.1 mph92%30.21 "Hg2 mi
3:20 am12 °FIce fog.1 mph92%30.21 "Hg2 mi
2:50 am12 °FIce fog.No wind92%30.21 "Hg2 mi
2:20 am12 °FIce fog.1 mph92%30.21 "Hg2 mi
1:50 am14 °FIce fog.1 mph85%30.21 "Hg2 mi
1:20 am14 °FIce fog.1 mph92%30.21 "Hg3 mi
12:50 am14 °FIce fog.2 mph92%30.21 "Hg3 mi
12:20 am12 °FIce fog.1 mph92%30.21 "Hg3 mi
11:50 pm
Sun, Jan 22
16 °FIce fog.2 mph93%30.21 "Hg3 mi
11:20 pm16 °FClear.2 mph86%30.21 "Hg4 mi
10:50 pm14 °FClear.No wind92%30.21 "Hg4 mi
10:20 pm18 °FClear.2 mph86%30.21 "Hg4 mi
9:50 pm18 °FClear.2 mph86%30.21 "Hg4 mi
9:20 pm19 °FClear.5 mph86%30.21 "Hg4 mi
8:50 pm19 °FClear.5 mph86%30.21 "Hg5 mi
8:20 pm19 °FClear.5 mph86%30.21 "Hg5 mi
7:50 pm21 °FClear.2 mph80%30.21 "Hg5 mi
7:20 pm21 °FClear.2 mph80%30.21 "Hg5 mi
6:50 pm23 °FClear.2 mph80%30.21 "Hg5 mi
6:20 pm25 °FClear.3 mph74%30.21 "Hg5 mi
5:50 pm25 °FClear.5 mph74%30.18 "Hg5 mi
5:20 pm27 °FClear.5 mph74%30.18 "Hg5 mi
4:50 pm28 °FClear.5 mph69%30.18 "Hg6 mi
4:20 pm30 °FSunny.1 mph64%30.18 "Hg10 mi
3:50 pm30 °FSunny.2 mph64%30.18 "Hg10 mi
3:20 pm30 °FSunny.2 mph69%30.18 "Hg10 mi
2:50 pm30 °FPassing clouds.3 mph64%30.18 "HgN/A
2:20 pm30 °FPassing clouds.3 mph64%30.18 "HgN/A
1:50 pm28 °FSunny.2 mph69%30.21 "Hg10 mi
1:20 pm28 °FClear.3 mph69%30.21 "Hg4 mi
12:50 pm27 °FClear.3 mph69%30.21 "Hg4 mi
12:20 pm25 °FClear.2 mph74%30.21 "Hg4 mi
11:50 am23 °FClear.2 mph74%30.24 "Hg4 mi
11:20 am21 °FHaze.3 mph80%30.24 "Hg3 mi
Weather by CustomWeather, © 2017

See weather overviewHow to use our weather pages